Vertical_Velocity
-0 2 5 3 -2 -1 0 1 -2 0 -1 -1 -0 -1 -2 -2 -1 -2 1 -0 -1 -1 -1 -1 -2 -0 -0 -0 1 -0 -1 -2 -1 1 -1 1 0 -2 -0 2 1 1 1
0 -1 2 5 8 6 3 2 1 0 -0 -0 -1 -1 -1 -0 -2 -2 -2 -1 1 2 2 2 -0 -2 -0 -1 -1 -1 -2 -1 -1 1 1 -1 1 2 1 1 -1 0 3
-5 -1 -0 1 1 2 3 4 4 2 1 -1 -2 -2 -2 -1 -1 -2 -3 -2 -2 -2 -1 1 1 1 -3 -3 -2 0 -1 -1 -1 0 -2 -0 -2 -1 3 -1 -3 -3 -1
-5 -5 -0 2 1 4 -1 -0 2 4 4 3 3 0 0 -1 -1 -2 -3 -3 -1 -1 1 2 2 1 2 2 2 2 -1 1 -1 0 -0 -2 1 -1 -0 -0 -3 -1 -2
-1 -5 -3 -0 1 3 3 -1 -1 -1 -1 0 2 2 1 -1 -0 -2 -2 -2 -3 -0 -2 -1 1 1 -1 1 1 2 1 2 2 -2 -6 1 3 2 3 -2 1 0 4
-1 -0 -4 -2 -1 -0 3 3 0 0 -0 -1 -0 -1 1 0 -1 -0 -2 -2 -1 -1 0 -1 0 0 -2 -1 -1 -0 -3 -1 -1 3 3 -2 -3 7 7 2 2 -1 3
-5 -2 -3 -2 -0 1 1 2 2 -0 -1 -2 -2 -0 -2 -0 -1 -1 -0 -3 -1 2 -1 -1 0 -0 1 0 -1 1 -1 -2 -5 -4 -1 -3 2 3 14 3 -4 -0 3
-0 -0 -1 -3 -1 1 4 2 1 1 -1 -1 -1 -1 -0 -1 -0 -1 -2 -2 -1 -1 0 -3 -2 2 1 0 1 -1 2 2 -2 -2 -4 -0 2 -0 0 -2 -6 -3 -4
-1 1 -1 -2 -1 -0 2 2 2 2 1 1 0 -1 -1 -0 -1 -2 -3 -2 -1 -1 -0 2 -3 0 -1 -1 -1 1 2 1 -1 -3 -3 -7 0 -0 -0 -2 -4 -6 -1
-3 -0 2 -1 -1 -2 -1 -0 1 1 1 1 0 2 2 2 0 0 -1 -2 -0 -1 -0 1 2 1 2 1 -3 -3 1 5 -2 -1 -1 -2 -8 -0 2 6 -2 -4 -3
-4 -1 3 -2 -1 -1 0 -1 -2 -2 -0 1 1 -1 2 -0 -0 -0 -2 -0 -0 -0 -1 -0 2 -0 0 2 3 -5 -2 1 3 -1 -2 -1 -1 -5 0 3 1 -4 -1
-5 -4 1 5 1 -1 1 2 1 3 1 -1 -2 -0 -1 -0 -0 2 1 -1 1 -0 1 0 2 0 -2 1 2 2 -5 -1 3 -3 3 0 -5 -6 -7 -2 -3 0 -2
6 -5 -0 -2 4 4 -3 5 4 4 3 1 -0 -1 -0 1 0 -3 -1 -1 -2 -1 -1 2 1 -2 1 -1 -1 1 -1 -0 1 -3 -3 1 1 -1 -1 -9 -12 -6 3
1 -2 -3 -2 3 6 -2 -1 4 3 4 4 4 3 -2 -1 -1 -1 -2 -1 0 -1 -1 -0 1 4 -0 -0 2 1 1 -5 3 1 -0 0 2 0 -1 4 -1 -1 -2
-3 3 11 11 -4 3 1 -0 7 2 -3 4 2 4 2 -0 -2 2 1 -0 1 -0 -1 -2 -0 2 3 3 1 2 2 1 -6 -0 -3 -0 -2 -2 2 -1 4 -2 -0
0 -1 4 -2 1 5 4 -1 3 1 11 8 5 3 2 3 2 -1 1 0 -3 1 2 1 1 2 3 2 1 0 1 2 4 -3 -2 -2 0 1 1 1 1 2 -1
2 -8 -8 -2 -3 -1 2 0 -1 -0 2 1 3 6 13 2 2 3 3 1 1 3 2 2 -1 1 1 5 3 3 5 1 -1 2 -1 -5 -1 -0 2 2 3 2 0
-2 1 0 -2 -3 -4 -3 2 1 -3 2 1 3 5 3 2 0 13 8 7 7 6 6 -1 3 0 -0 0 3 3 -1 1 -1 -2 0 -1 -2 -2 -1 -0 1 -0 -1
6 5 3 1 1 -3 -3 2 -2 -1 -2 2 3 2 5 6 8 6 4 14 8 -22 4 2 4 2 -0 -2 -1 2 4 3 4 1 2 -2 -6 -2 -3 1 -0 2 4
5 1 1 1 0 -2 -5 -4 2 1 1 -2 1 2 4 2 -1 4 3 5 18 14 10 8 4 3 -4 -1 0 0 0 2 3 4 3 3 1 -6 -0 -0 -1 -1 9
2 1 0 -5 -4 -6 -2 -10 -4 -1 2 1 2 1 -1 2 1 -2 -2 -5 6 8 1 1 12 4 5 0 13 8 4 6 2 3 3 -0 0 -1 -6 0 -2 3 -1
-1 -2 -0 -1 -6 -8 -7 -3 -7 -9 -1 -2 -2 -1 2 0 1 -0 3 -4 1 1 8 6 12 8 8 5 11 20 5 11 9 -4 1 4 2 4 -5 -3 -1 0 2
0 1 0 -6 -3 -4 -5 -6 1 -1 -2 -3 1 -3 -2 -1 1 -0 0 2 0 -3 -1 2 4 8 1 6 -1 7 33 -2 -1 5 -2 -1 -2 3 -3 -5 -5 1 2
2 -1 -2 3 -3 -4 -4 -6 -5 -2 -4 -2 -5 -6 -6 0 -2 1 -3 0 3 -1 -1 -1 -0 3 15 3 4 -1 -55 22 -5 -4 3 -5 2 3 1 -1 -8 0 -5
1 -4 -5 6 -0 -8 -2 -4 -9 -4 -3 -1 -1 -1 -2 -3 -1 -2 -1 -0 -1 0 0 0 4 -4 5 9 -1 -12 7 -11 1 -20 -5 -7 4 -2 2 -3 1 -4 5
4 -3 -1 12 -2 -4 -7 -7 -3 -7 -5 -2 -0 -3 0 -3 -3 -1 1 1 2 -0 -4 -2 1 2 -1 7 11 12 -3 -14 -17 -1 8 -1 -5 -9 3 -7 -0 -0 3
Height
1496 1497 1497 1497 1499 1502 1503 1504 1506 1508 1509 1511 1513 1515 1517 1519 1520 1521 1522 1522 1524 1525 1527 1529 1531 1532 1534 1536 1537 1538 1540 1541 1542 1542 1542 1542 1541 1542 1543 1544 1545 1545 1546
1494 1496 1497 1498 1499 1501 1502 1504 1506 1507 1509 1511 1513 1515 1518 1519 1520 1522 1523 1523 1525 1526 1528 1529 1531 1533 1535 1536 1538 1539 1540 1541 1542 1542 1542 1542 1542 1543 1543 1544 1546 1547 1548
1493 1495 1496 1498 1500 1501 1502 1504 1505 1507 1508 1510 1512 1514 1517 1519 1520 1522 1523 1525 1525 1527 1528 1530 1532 1533 1535 1537 1538 1539 1540 1541 1541 1542 1541 1542 1542 1543 1544 1545 1546 1548 1549
1491 1494 1495 1497 1498 1500 1502 1503 1505 1507 1509 1510 1511 1513 1516 1518 1520 1522 1523 1524 1525 1526 1528 1530 1531 1533 1535 1537 1538 1539 1540 1541 1541 1541 1542 1543 1542 1543 1544 1545 1546 1547 1547
1489 1491 1494 1496 1498 1499 1501 1503 1504 1505 1507 1510 1512 1513 1515 1518 1519 1521 1523 1524 1525 1526 1527 1529 1531 1533 1535 1536 1537 1538 1540 1540 1540 1540 1541 1542 1543 1543 1543 1544 1546 1548 1548
1488 1490 1492 1495 1497 1499 1500 1501 1503 1504 1506 1508 1510 1512 1514 1516 1518 1520 1521 1523 1524 1525 1527 1528 1530 1532 1533 1535 1536 1537 1538 1539 1540 1540 1541 1542 1543 1543 1544 1545 1546 1548 1548
1488 1489 1490 1492 1494 1495 1498 1499 1501 1502 1504 1506 1509 1511 1513 1515 1516 1519 1520 1521 1523 1523 1525 1527 1529 1530 1532 1533 1535 1536 1537 1537 1538 1539 1540 1542 1543 1542 1544 1545 1547 1549 1549
1487 1487 1488 1490 1492 1492 1494 1497 1498 1500 1502 1504 1506 1509 1510 1512 1514 1516 1518 1519 1520 1521 1522 1525 1528 1529 1530 1532 1533 1535 1536 1536 1537 1538 1538 1540 1541 1540 1542 1543 1545 1547 1549
1486 1487 1487 1487 1489 1490 1491 1494 1496 1497 1499 1501 1503 1505 1508 1510 1512 1514 1515 1517 1518 1519 1520 1522 1525 1527 1528 1530 1531 1533 1534 1535 1536 1536 1536 1538 1541 1539 1540 1540 1540 1544 1546
1485 1486 1485 1485 1486 1487 1488 1489 1492 1495 1497 1499 1501 1503 1505 1507 1509 1511 1512 1513 1515 1516 1517 1519 1522 1524 1526 1527 1529 1531 1532 1533 1534 1534 1534 1536 1537 1538 1538 1539 1539 1542 1545
1482 1484 1484 1484 1483 1484 1484 1485 1487 1490 1493 1496 1498 1500 1502 1504 1507 1508 1509 1510 1512 1513 1513 1515 1518 1520 1523 1524 1525 1527 1529 1531 1532 1533 1533 1534 1535 1536 1538 1538 1539 1540 1542
1478 1481 1482 1482 1481 1481 1481 1482 1482 1485 1488 1491 1494 1497 1499 1502 1503 1505 1507 1508 1509 1510 1510 1512 1514 1516 1518 1520 1522 1523 1526 1528 1529 1531 1531 1531 1532 1533 1535 1537 1538 1540 1541
1475 1476 1478 1482 1481 1479 1480 1479 1479 1481 1484 1486 1489 1492 1495 1498 1499 1501 1502 1504 1504 1506 1506 1507 1509 1511 1513 1516 1518 1520 1522 1524 1526 1528 1529 1530 1530 1530 1532 1534 1537 1539 1540
1472 1473 1474 1476 1479 1477 1477 1479 1480 1479 1481 1483 1486 1488 1490 1492 1494 1496 1497 1499 1501 1501 1502 1503 1504 1507 1509 1511 1514 1516 1517 1520 1522 1524 1526 1528 1529 1528 1528 1530 1531 1533 1536
1465 1468 1472 1474 1474 1476 1475 1477 1479 1479 1479 1481 1483 1484 1486 1488 1490 1493 1494 1495 1496 1497 1497 1499 1500 1502 1504 1507 1509 1512 1514 1515 1518 1520 1521 1524 1526 1527 1526 1527 1528 1530 1532
1460 1463 1467 1470 1474 1473 1474 1475 1475 1476 1477 1478 1480 1481 1483 1484 1486 1487 1489 1489 1491 1491 1493 1494 1495 1497 1499 1502 1505 1506 1508 1511 1512 1514 1517 1520 1521 1523 1524 1524 1524 1526 1527
1454 1457 1463 1466 1469 1471 1471 1471 1473 1474 1473 1474 1475 1477 1479 1480 1480 1481 1481 1482 1483 1485 1487 1489 1492 1493 1495 1496 1498 1502 1503 1506 1508 1509 1512 1515 1517 1519 1520 1521 1522 1521 1522
1450 1455 1459 1463 1465 1467 1470 1469 1469 1470 1470 1470 1471 1471 1472 1474 1476 1475 1474 1477 1481 1482 1483 1485 1487 1488 1490 1491 1493 1495 1498 1500 1502 1504 1505 1508 1511 1514 1516 1517 1518 1518 1517
1448 1452 1456 1459 1460 1463 1466 1466 1466 1467 1467 1468 1467 1466 1466 1467 1469 1470 1470 1472 1477 1475 1477 1479 1481 1483 1484 1486 1487 1490 1492 1494 1496 1498 1499 1499 1503 1508 1510 1512 1513 1513 1513
1445 1447 1451 1453 1454 1457 1460 1462 1461 1461 1463 1464 1464 1463 1463 1463 1464 1463 1463 1464 1468 1471 1470 1471 1473 1476 1478 1479 1481 1483 1485 1489 1492 1493 1494 1495 1496 1499 1504 1506 1507 1507 1508
1443 1446 1448 1450 1451 1454 1455 1456 1458 1456 1457 1458 1459 1458 1458 1457 1458 1457 1456 1456 1459 1461 1463 1466 1467 1469 1470 1473 1476 1477 1478 1479 1483 1487 1488 1490 1491 1492 1497 1499 1501 1502 1503
1441 1444 1446 1448 1451 1453 1454 1455 1454 1454 1453 1452 1451 1452 1451 1450 1450 1451 1450 1450 1450 1452 1454 1457 1460 1464 1465 1468 1469 1470 1469 1474 1474 1477 1482 1483 1486 1487 1488 1493 1494 1495 1496
1441 1444 1446 1449 1451 1451 1451 1452 1451 1449 1449 1447 1447 1446 1445 1443 1442 1442 1443 1442 1442 1444 1444 1447 1450 1455 1458 1460 1462 1466 1435 1458 1471 1474 1474 1478 1480 1482 1482 1485 1488 1488 1490
1442 1444 1448 1449 1449 1449 1449 1448 1447 1445 1442 1442 1440 1437 1436 1436 1435 1433 1432 1434 1434 1435 1435 1438 1440 1444 1448 1449 1453 1455 1448 1445 1466 1470 1469 1470 1473 1474 1474 1478 1479 1481 1482
1446 1446 1452 1450 1444 1446 1446 1445 1445 1443 1441 1438 1434 1430 1427 1426 1426 1425 1424 1423 1424 1425 1427 1429 1430 1433 1438 1440 1442 1449 1451 1452 1457 1465 1464 1463 1465 1465 1466 1469 1471 1474 1473
1446 1446 1449 1446 1440 1443 1443 1442 1440 1440 1437 1433 1428 1423 1420 1419 1418 1417 1415 1414 1413 1415 1418 1420 1420 1423 1427 1432 1435 1439 1441 1443 1441 1445 1451 1452 1455 1456 1459 1461 1465 1463 1466